Weather History for Ainsworth, NE

Change the Weather History Date:

Thursday, December 20, 2012

  Actual Average Record
Temperature  
Mean Temperature 23 °F -  
Max Temperature 34 °F 35 °F 55 °F (2003)
Min Temperature 12 °F 14 °F -4 °F (2008)
Degree Days  
Heating Degree Days 42    
Moisture  
Dew Point 12 °F    
Average Humidity 69    
Maximum Humidity 90    
Minimum Humidity 39    
Precipitation  
Precipitation 0.00 in - - ()
Sea Level Pressure  
Sea Level Pressure 30.09 in    
Wind  
Wind Speed 9 mph (West)    
Max Wind Speed 15 mph    
Max Gust Speed -    
Visibility 10 miles    
Events      
Averages and records for this station are not official NWS values.
T = Trace of Precipitation, MM = Missing Value Source: NWS Daily Summary

Daily Weather History Graph

Daily Weather History Graph

Search for Another Location

Airport:

Trip Planner

Search our weather history database for the weather conditions in past years. The results will help you decide how hot, cold, wet, or windy it might be!

Date:

Astronomy

Dec. 20, 2012 Rise Set
Actual Time 8:06 AM CST 5:09 PM CST
Civil Twilight 7:34 AM CST 5:41 PM CST
Nautical Twilight 6:58 AM CST 6:17 PM CST
Astronomical Twilight 6:24 AM CST 6:51 PM CST
Moon 12:34 PM CST (12/20) 12:48 AM CST (12/20)
Length of Visible Light 10h 07m
Length of Day
9h 03m
First Quarter, 55% of the Moon is Illuminated
Dec 20
First Quarter
Dec 28
Full
Jan 4
Last Quarter
Jan 11
New
Jan 18
First Quarter

Hourly Weather History & Observations

Time (CST) Temp. Windchill Dew Point Humidity Pressure Visibility Wind Dir Wind Speed Gust Speed Precip Events Conditions
12:15 AM 15.3 °F 5.4 °F 12.0 °F 87% 30.04 in 10.0 mi WNW 6.9 mph - N/A   Clear
12:35 AM 14.2 °F 4.1 °F 11.7 °F 90% 30.04 in 10.0 mi NW 6.9 mph - N/A   Clear
12:55 AM 15.3 °F 5.4 °F 12.7 °F 90% 30.04 in 10.0 mi NW 6.9 mph - N/A   Clear
1:15 AM 15.6 °F 4.0 °F 13.1 °F 90% 30.03 in 10.0 mi NW 9.2 mph - N/A   Clear
1:35 AM 15.4 °F 3.8 °F 12.9 °F 90% 30.03 in 10.0 mi NW 9.2 mph - N/A   Clear
1:55 AM 15.3 °F 3.5 °F 12.4 °F 88% 30.03 in 10.0 mi NW 9.2 mph - N/A   Clear
2:15 AM 15.4 °F 3.8 °F 12.2 °F 87% 30.03 in 10.0 mi NW 9.2 mph - N/A   Mostly Cloudy
2:35 AM 15.4 °F 2.3 °F 12.2 °F 87% 30.04 in 10.0 mi NW 11.5 mph - N/A   Scattered Clouds
2:55 AM 15.4 °F 2.3 °F 12.0 °F 86% 30.04 in 10.0 mi NW 11.5 mph - N/A   Scattered Clouds
3:15 AM 15.6 °F 2.5 °F 12.4 °F 87% 30.05 in 10.0 mi NW 11.5 mph - N/A   Scattered Clouds
3:35 AM 16.0 °F 2.3 °F 12.4 °F 86% 30.05 in 10.0 mi NW 12.7 mph - N/A   Overcast
3:55 AM 15.1 °F 1.8 °F 11.5 °F 86% 30.06 in 10.0 mi NW 11.5 mph - N/A   Scattered Clouds
4:15 AM 14.5 °F 1.9 °F 10.9 °F 86% 30.06 in 10.0 mi NW 10.4 mph - N/A   Clear
4:35 AM 14.0 °F 1.2 °F 10.4 °F 86% 30.06 in 10.0 mi NW 10.4 mph - N/A   Clear
4:55 AM 14.0 °F -1.4 °F 10.4 °F 86% 30.06 in 10.0 mi NW 15.0 mph - N/A   Clear
5:15 AM 14.4 °F 1.6 °F 10.4 °F 84% 30.07 in 10.0 mi NW 10.4 mph - N/A   Clear
5:35 AM 14.0 °F 0.5 °F 10.0 °F 84% 30.07 in 10.0 mi NW 11.5 mph - N/A   Clear
5:55 AM 14.5 °F 1.9 °F 10.4 °F 84% 30.08 in 10.0 mi WNW 10.4 mph - N/A   Clear
6:15 AM 13.1 °F 1.8 °F 8.8 °F 83% 30.08 in 10.0 mi WNW 8.1 mph - N/A   Clear
6:35 AM 13.6 °F 1.6 °F 9.1 °F 82% 30.09 in 10.0 mi WNW 9.2 mph - N/A   Clear
6:55 AM 13.5 °F 1.3 °F 8.8 °F 82% 30.09 in 10.0 mi NW 9.2 mph - N/A   Clear
7:15 AM 14.0 °F 2.0 °F 8.6 °F 79% 30.10 in 10.0 mi WNW 9.2 mph - N/A   Clear
7:35 AM 14.0 °F 2.0 °F 8.2 °F 78% 30.11 in 10.0 mi WNW 9.2 mph - N/A   Clear
7:55 AM 14.2 °F 1.4 °F 7.5 °F 75% 30.11 in 10.0 mi WNW 10.4 mph - N/A   Clear
8:15 AM 13.1 °F 0.9 °F 6.6 °F 75% 30.11 in 10.0 mi WNW 9.2 mph - N/A   Clear
8:35 AM 12.7 °F -0.4 °F 6.3 °F 75% 30.11 in 10.0 mi West 10.4 mph - N/A   Clear
8:55 AM 13.8 °F 1.8 °F 6.8 °F 74% 30.11 in 10.0 mi WNW 9.2 mph - N/A   Clear
9:15 AM 14.7 °F 3.8 °F 7.0 °F 71% 30.12 in 10.0 mi WNW 8.1 mph - N/A   Clear
9:35 AM 15.8 °F 2.7 °F 7.5 °F 70% 30.12 in 10.0 mi WNW 11.5 mph - N/A   Clear
9:55 AM 17.6 °F 4.3 °F 8.4 °F 67% 30.13 in 10.0 mi West 12.7 mph - N/A   Clear
10:15 AM 20.1 °F 8.8 °F 10.0 °F 65% 30.13 in 10.0 mi WNW 10.4 mph - N/A   Clear
10:35 AM 21.9 °F 11.0 °F 11.1 °F 63% 30.14 in 10.0 mi West 10.4 mph - N/A   Clear
10:55 AM 23.9 °F 14.2 °F 11.3 °F 59% 30.14 in 10.0 mi WNW 9.2 mph - N/A   Clear
11:15 AM 26.2 °F 15.2 °F 12.7 °F 57% 30.14 in 10.0 mi WNW 12.7 mph - N/A   Clear
11:35 AM 27.5 °F 16.8 °F 12.2 °F 53% 30.13 in 10.0 mi WNW 12.7 mph - N/A   Clear
11:55 AM 28.8 °F 19.0 °F 13.6 °F 53% 30.12 in 10.0 mi West 11.5 mph - N/A   Clear
12:15 PM 30.0 °F 21.7 °F 14.4 °F 52% 30.12 in 10.0 mi West 9.2 mph - N/A   Clear
12:35 PM 30.9 °F 22.2 °F 13.5 °F 48% 30.11 in 10.0 mi West 10.4 mph - N/A   Clear
12:55 PM 31.8 °F 22.8 °F 13.1 °F 46% 30.10 in 10.0 mi WNW 11.5 mph - N/A   Clear
1:15 PM 32.0 °F 23.6 °F 13.5 °F 46% 30.10 in 10.0 mi West 10.4 mph - N/A   Clear
1:35 PM 32.5 °F 23.7 °F 14.2 °F 47% 30.09 in 10.0 mi WNW 11.5 mph - N/A   Clear
1:55 PM 33.3 °F 24.6 °F 13.3 °F 44% 30.09 in 10.0 mi WNW 11.5 mph - N/A   Clear
2:15 PM 33.8 °F 26.4 °F 14.0 °F 44% 30.08 in 10.0 mi WNW 9.2 mph - N/A   Clear
2:35 PM 34.0 °F 26.6 °F 11.5 °F 39% 30.08 in 10.0 mi WNW 9.2 mph - N/A   Clear
2:55 PM 34.5 °F 28.6 °F 13.1 °F 41% 30.08 in 10.0 mi WNW 6.9 mph - N/A   Clear
3:15 PM 34.7 °F 27.5 °F 14.9 °F 44% 30.08 in 10.0 mi West 9.2 mph - N/A   Clear
3:35 PM 34.2 °F 27.5 °F 14.2 °F 44% 30.09 in 10.0 mi West 8.1 mph - N/A   Clear
3:55 PM 34.2 °F 29.0 °F 14.9 °F 45% 30.09 in 10.0 mi West 5.8 mph - N/A   Clear
4:15 PM 33.8 °F 29.6 °F 14.7 °F 46% 30.09 in 10.0 mi West 4.6 mph - N/A   Clear
4:35 PM 32.4 °F 26.9 °F 15.1 °F 49% 30.09 in 10.0 mi WSW 5.8 mph - N/A   Clear
4:55 PM 30.4 °F 24.5 °F 14.0 °F 51% 30.09 in 10.0 mi WSW 5.8 mph - N/A   Clear
5:15 PM 27.5 °F 20.2 °F 14.7 °F 59% 30.09 in 10.0 mi SW 6.9 mph - N/A   Clear
5:35 PM 25.9 °F 18.2 °F 13.8 °F 60% 30.09 in 10.0 mi SW 6.9 mph - N/A   Clear
5:55 PM 25.9 °F 18.2 °F 13.8 °F 60% 30.10 in 10.0 mi SW 6.9 mph - N/A   Clear
6:15 PM 24.8 °F 19.1 °F 14.0 °F 64% 30.10 in 10.0 mi SW 4.6 mph - N/A   Clear
6:35 PM 21.4 °F - 11.7 °F 66% 30.09 in 10.0 mi Calm Calm - N/A   Clear
6:55 PM 18.1 °F 12.9 °F 11.3 °F 75% 30.09 in 10.0 mi SSW 3.5 mph - N/A   Clear
7:15 PM 19.4 °F 9.5 °F 12.0 °F 73% 30.09 in 10.0 mi SSW 8.1 mph - N/A   Clear
7:35 PM 21.0 °F 11.4 °F 13.6 °F 73% 30.09 in 10.0 mi SW 8.1 mph - N/A   Clear
7:55 PM 20.8 °F 11.2 °F 13.5 °F 73% 30.10 in 10.0 mi SW 8.1 mph - N/A   Clear
8:15 PM 20.8 °F 12.1 °F 13.5 °F 73% 30.10 in 10.0 mi SW 6.9 mph - N/A   Clear
8:35 PM 19.4 °F 10.4 °F 12.9 °F 76% 30.10 in 10.0 mi SW 6.9 mph - N/A   Clear
8:55 PM 19.4 °F 10.4 °F 12.9 °F 76% 30.10 in 10.0 mi SW 6.9 mph - N/A   Clear
9:15 PM 18.1 °F 8.9 °F 11.8 °F 76% 30.10 in 10.0 mi SW 6.9 mph - N/A   Clear
9:35 PM 18.9 °F 10.8 °F 12.0 °F 75% 30.10 in 10.0 mi WSW 5.8 mph - N/A   Clear
9:55 PM 19.9 °F 12.1 °F 12.0 °F 71% 30.11 in 10.0 mi WSW 5.8 mph - N/A   Clear
10:15 PM 20.5 °F 15.6 °F 12.7 °F 72% 30.11 in 10.0 mi WSW 3.5 mph - N/A   Clear
10:35 PM 20.8 °F 14.4 °F 12.9 °F 71% 30.11 in 10.0 mi West 4.6 mph - N/A   Clear
10:55 PM 20.5 °F 14.0 °F 12.9 °F 73% 30.11 in 10.0 mi WSW 4.6 mph - N/A   Clear
11:15 PM 17.6 °F 12.3 °F 11.1 °F 76% 30.12 in 10.0 mi SW 3.5 mph - N/A   Clear
11:35 PM 20.1 °F 13.6 °F 13.1 °F 74% 30.13 in 10.0 mi WSW 4.6 mph - N/A   Clear
11:55 PM 18.3 °F 13.1 °F 11.7 °F 75% 30.13 in 10.0 mi WSW 3.5 mph - N/A   Clear